Weather in Rozdory

Ukraine / Dnipropetrovsk Region     48°19′43″N   35°42′11″E
temp.,
°C
wind,
m/s
gust,
m/s
humid.,
%
clouds,
%
prec.,
mm/h
press.,
hPa
HPBL,
m
5 december, sun
sun523:00+1ene5988100 0.1 1012446
02:000ne5990100 0.1 1012324
05:00−1ne5109364 0.0 1011354
08:00−1nne489186 0.0 1013342
11:00+2ne457745 0.0 1013456
14:00+3ne3469100 0.0 1014564
17:00+1ene3581100 0.0 101593
20:00+1ese2286100 0.0 101658
6 december, mon
mon623:00+1se2291100 0.0 101632
02:000se2394100 0.0 101744
05:000se3497100 0.0 1017100
08:00+1se4695100 0.0 1018240
11:00+4sse4682100 0.0 1017276
14:00+5ese3584100 0.2 1016263
17:00+4se6119299 0.1 1017293
20:00+5se61392100 0.1 1016329
7 december, tue
tue723:00+6sse61494100 0.0 1015323
02:00+7sse51395100 0.0 1015282
05:00+8sse51292100 0.0 1014290
08:00+8sse61391100 0.9 1014315
11:00+10sse61273100 0.3 1013374
14:00+11sse51164100 0.3 1011427
17:00+8sse3879100 0.0 1011139
20:00+7se4883100 0.0 1010150
8 december, wed
wed823:00+6se4978100 0.0 1009154
02:00+6ese41083100 0.0 1008174
05:00+5ese41088100 0.0 1007215
08:00+5ese41090100 0.0 1007233
11:00+9ese61369100 0.0 1006405
14:00+10ese51065100 0.0 1005422
17:00+9se61371100 0.0 1005389
20:00+8se61479100 0.0 1006369
9 december, thu
thu923:00+6sse4991100 0.0 1007180
02:00+6sse3793100 0.0 1008137
05:00+7sse61293100 0.1 1008643
08:00+7ssw61195100 0.3 1009570
11:00+7sw51193100 0.6 1011629
14:00+7w6992100 0.9 1013572
17:00+6wsw3690100 0.0 1016368
20:00+6wsw4785100 0.0 1017458